Time,TemperatureF,DewpointF,PressureIn,WindDirection,WindDirectionDegrees,WindSpeedMPH,WindSpeedGustMPH,Humidity,HourlyPrecipIn,Conditions,Clouds,dailyrainin,SolarRadiationWatts/m^2,SoftwareType,DateUTC
2013-03-31 00:14:00,43.3,42.0,29.79,WNW,292,8.0,10.0,95,0.00,,,0.00,0,weatherlink.com 1.10,2013-03-31 05:14:00,
2013-03-31 00:29:00,43.1,42.0,29.79,WNW,302,6.0,8.0,94,0.00,,,0.00,0,weatherlink.com 1.10,2013-03-31 05:29:00,
2013-03-31 00:44:00,43.1,42.0,29.79,WNW,295,4.0,8.0,94,0.00,,,0.00,0,weatherlink.com 1.10,2013-03-31 05:44:00,
2013-03-31 00:59:00,43.3,42.0,29.78,NW,312,10.0,16.0,93,0.00,,,0.00,0,weatherlink.com 1.10,2013-03-31 05:59:00,
2013-03-31 01:14:00,42.9,41.0,29.78,NW,315,13.0,16.0,92,0.00,,,0.00,0,weatherlink.com 1.10,2013-03-31 06:14:00,
2013-03-31 01:29:00,42.4,40.0,29.78,NW,307,11.0,13.0,92,0.00,,,0.00,0,weatherlink.com 1.10,2013-03-31 06:29:00,
2013-03-31 01:44:00,41.9,40.0,29.78,NW,317,16.0,17.0,92,0.00,,,0.00,0,weatherlink.com 1.10,2013-03-31 06:44:00,
2013-03-31 01:59:00,41.0,39.0,29.79,NW,312,13.0,18.0,91,0.00,,,0.00,0,weatherlink.com 1.10,2013-03-31 06:59:00,
2013-03-31 02:14:00,39.8,37.0,29.78,NW,304,7.0,11.0,91,0.00,,,0.00,0,weatherlink.com 1.10,2013-03-31 07:14:00,
2013-03-31 02:29:00,38.4,36.0,29.78,NW,306,5.0,7.0,91,0.00,,,0.00,0,weatherlink.com 1.10,2013-03-31 07:29:00,
2013-03-31 02:44:00,37.6,36.0,29.77,NW,306,5.0,7.0,92,0.00,,,0.00,0,weatherlink.com 1.10,2013-03-31 07:44:00,
2013-03-31 02:59:00,37.0,35.0,29.77,NW,306,7.0,7.0,93,0.00,,,0.00,0,weatherlink.com 1.10,2013-03-31 07:59:00,
2013-03-31 03:14:00,36.8,35.0,29.77,NW,306,6.0,7.0,93,0.00,,,0.00,0,weatherlink.com 1.10,2013-03-31 08:14:00,
2013-03-31 03:29:00,36.0,34.0,29.78,NW,306,5.0,7.0,93,0.00,,,0.00,0,weatherlink.com 1.10,2013-03-31 08:29:00,
2013-03-31 03:44:00,36.0,35.0,29.77,WNW,302,6.0,7.0,94,0.00,,,0.00,0,weatherlink.com 1.10,2013-03-31 08:44:00,
2013-03-31 03:59:00,37.0,36.0,29.77,WNW,290,7.0,10.0,95,0.00,,,0.00,0,weatherlink.com 1.10,2013-03-31 08:59:00,
2013-03-31 04:14:00,37.3,36.0,29.76,WNW,286,6.0,7.0,95,0.00,,,0.00,0,weatherlink.com 1.10,2013-03-31 09:14:00,
2013-03-31 04:29:00,38.4,37.0,29.76,WNW,285,7.0,10.0,95,0.00,,,0.00,0,weatherlink.com 1.10,2013-03-31 09:29:00,
2013-03-31 04:44:00,38.8,37.0,29.76,WNW,286,5.0,9.0,94,0.00,,,0.00,0,weatherlink.com 1.10,2013-03-31 09:44:00,
2013-03-31 04:59:00,39.1,38.0,29.76,West,274,6.0,10.0,94,0.00,,,0.00,0,weatherlink.com 1.10,2013-03-31 09:59:00,
2013-03-31 05:14:00,39.0,38.0,29.75,WNW,287,6.0,10.0,94,0.00,,,0.00,0,weatherlink.com 1.10,2013-03-31 10:14:00,
2013-03-31 05:29:00,39.1,38.0,29.75,West,274,4.0,7.0,94,0.00,,,0.00,0,weatherlink.com 1.10,2013-03-31 10:29:00,
2013-03-31 05:44:00,39.2,38.0,29.76,WNW,284,4.0,8.0,94,0.00,,,0.00,0,weatherlink.com 1.10,2013-03-31 10:44:00,
2013-03-31 05:59:00,39.1,38.0,29.75,WNW,283,3.0,10.0,94,0.00,,,0.00,0,weatherlink.com 1.10,2013-03-31 10:59:00,
2013-03-31 06:14:00,38.8,37.0,29.75,West,275,4.0,9.0,94,0.00,,,0.00,0,weatherlink.com 1.10,2013-03-31 11:14:00,
2013-03-31 06:29:00,38.5,37.0,29.75,West,279,4.0,11.0,94,0.00,,,0.00,0,weatherlink.com 1.10,2013-03-31 11:29:00,
2013-03-31 06:44:00,38.0,37.0,29.76,WNW,288,9.0,12.0,94,0.00,,,0.00,0,weatherlink.com 1.10,2013-03-31 11:44:00,
2013-03-31 07:00:00,38.0,37.0,29.75,West,269,5.0,8.0,94,0.00,,,0.00,16,weatherlink.com 1.10,2013-03-31 12:00:00,
2013-03-31 07:15:00,37.5,36.0,29.75,West,265,2.0,6.0,93,0.00,,,0.00,33,weatherlink.com 1.10,2013-03-31 12:15:00,
2013-03-31 07:30:00,37.1,36.0,29.75,West,275,2.0,5.0,94,0.00,,,0.00,95,weatherlink.com 1.10,2013-03-31 12:30:00,
2013-03-31 07:45:00,37.9,37.0,29.75,WSW,251,5.0,8.0,95,0.00,,,0.00,134,weatherlink.com 1.10,2013-03-31 12:45:00,
2013-03-31 08:00:00,38.3,37.0,29.75,West,265,4.0,7.0,94,0.00,,,0.00,121,weatherlink.com 1.10,2013-03-31 13:00:00,
2013-03-31 08:15:00,38.6,37.0,29.75,WSW,238,7.0,9.0,94,0.00,,,0.00,121,weatherlink.com 1.10,2013-03-31 13:15:00,
2013-03-31 08:30:00,39.0,38.0,29.74,WNW,284,5.0,8.0,94,0.00,,,0.00,272,weatherlink.com 1.10,2013-03-31 13:30:00,
2013-03-31 08:45:00,39.7,38.0,29.74,WSW,246,6.0,9.0,92,0.00,,,0.00,301,weatherlink.com 1.10,2013-03-31 13:45:00,
2013-03-31 09:00:00,40.6,38.0,29.74,WSW,254,5.0,9.0,91,0.00,,,0.00,362,weatherlink.com 1.10,2013-03-31 14:00:00,
2013-03-31 09:15:00,41.3,39.0,29.73,WSW,258,3.0,9.0,90,0.00,,,0.00,392,weatherlink.com 1.10,2013-03-31 14:15:00,
2013-03-31 09:30:00,42.0,39.0,29.73,West,263,5.0,11.0,88,0.00,,,0.00,450,weatherlink.com 1.10,2013-03-31 14:30:00,
2013-03-31 09:45:00,42.7,39.0,29.73,WSW,254,7.0,12.0,85,0.00,,,0.00,492,weatherlink.com 1.10,2013-03-31 14:45:00,
2013-03-31 10:00:00,44.5,40.0,29.73,WSW,240,10.0,12.0,83,0.00,,,0.00,529,weatherlink.com 1.10,2013-03-31 15:00:00,
2013-03-31 10:15:00,45.7,39.0,29.73,West,273,5.0,14.0,76,0.00,,,0.00,571,weatherlink.com 1.10,2013-03-31 15:15:00,
2013-03-31 10:30:00,46.2,39.0,29.73,WNW,291,8.0,15.0,75,0.00,,,0.00,610,weatherlink.com 1.10,2013-03-31 15:30:00,
2013-03-31 10:45:00,47.3,40.0,29.73,West,267,14.0,18.0,77,0.00,,,0.00,680,weatherlink.com 1.10,2013-03-31 15:45:00,
2013-03-31 11:00:00,48.2,40.0,29.73,WNW,295,12.0,18.0,74,0.00,,,0.00,700,weatherlink.com 1.10,2013-03-31 16:00:00,
2013-03-31 11:15:00,48.0,39.0,29.72,WNW,293,15.0,19.0,72,0.00,,,0.00,726,weatherlink.com 1.10,2013-03-31 16:15:00,
2013-03-31 11:30:00,48.5,39.0,29.72,WNW,284,17.0,21.0,70,0.00,,,0.00,763,weatherlink.com 1.10,2013-03-31 16:30:00,
2013-03-31 11:45:00,48.4,38.0,29.72,West,275,10.0,19.0,68,0.00,,,0.00,647,weatherlink.com 1.10,2013-03-31 16:45:00,
2013-03-31 12:00:00,48.6,40.0,29.72,NW,315,14.0,19.0,72,0.00,,,0.00,728,weatherlink.com 1.10,2013-03-31 17:00:00,
2013-03-31 12:15:00,48.3,40.0,29.72,NW,306,18.0,21.0,74,0.00,,,0.00,779,weatherlink.com 1.10,2013-03-31 17:15:00,
2013-03-31 12:30:00,47.5,40.0,29.71,NW,312,19.0,23.0,74,0.00,,,0.00,668,weatherlink.com 1.10,2013-03-31 17:30:00,
2013-03-31 12:46:00,47.7,40.0,29.72,WNW,298,19.0,22.0,76,0.00,,,0.00,745,weatherlink.com 1.10,2013-03-31 17:46:00,
2013-03-31 13:00:00,47.8,41.0,29.72,WNW,291,23.0,23.0,76,0.00,,,0.00,668,weatherlink.com 1.10,2013-03-31 18:00:00,
2013-03-31 13:15:00,47.1,40.0,29.73,WNW,294,23.0,23.0,77,0.00,,,0.00,714,weatherlink.com 1.10,2013-03-31 18:15:00,
2013-03-31 13:31:00,46.6,39.0,29.73,NW,313,20.0,28.0,76,0.00,,,0.00,826,weatherlink.com 1.10,2013-03-31 18:31:00,
2013-03-31 13:46:00,46.0,38.0,29.74,WNW,292,18.0,32.0,73,0.00,,,0.00,849,weatherlink.com 1.10,2013-03-31 18:46:00,
2013-03-31 14:01:00,45.3,37.0,29.74,NW,309,19.0,31.0,73,0.00,,,0.00,798,weatherlink.com 1.10,2013-03-31 19:01:00,
2013-03-31 14:16:00,44.0,37.0,29.74,NW,307,23.0,33.0,75,0.00,,,0.00,770,weatherlink.com 1.10,2013-03-31 19:16:00,
2013-03-31 14:31:00,44.4,37.0,29.74,WNW,298,22.0,31.0,76,0.00,,,0.00,826,weatherlink.com 1.10,2013-03-31 19:31:00,
2013-03-31 14:46:00,45.0,37.0,29.74,NW,321,21.0,26.0,73,0.00,,,0.00,816,weatherlink.com 1.10,2013-03-31 19:46:00,
2013-03-31 15:01:00,44.1,35.0,29.74,WNW,302,16.0,27.0,70,0.00,,,0.00,308,weatherlink.com 1.10,2013-03-31 20:01:00,
2013-03-31 15:16:00,44.1,36.0,29.74,NW,312,14.0,26.0,74,0.00,,,0.00,577,weatherlink.com 1.10,2013-03-31 20:16:00,
2013-03-31 15:31:00,43.9,35.0,29.75,NNW,340,14.0,25.0,71,0.00,,,0.00,329,weatherlink.com 1.10,2013-03-31 20:31:00,
2013-03-31 15:46:00,44.7,35.0,29.75,NW,306,18.0,29.0,70,0.00,,,0.00,610,weatherlink.com 1.10,2013-03-31 20:46:00,
2013-03-31 16:01:00,43.4,36.0,29.75,NNW,338,19.0,29.0,74,0.00,,,0.00,374,weatherlink.com 1.10,2013-03-31 21:01:00,
2013-03-31 16:16:00,41.6,34.0,29.75,NW,313,21.0,31.0,74,0.00,,,0.00,265,weatherlink.com 1.10,2013-03-31 21:16:00,
2013-03-31 16:31:00,41.6,34.0,29.76,NW,314,23.0,31.0,73,0.00,,,0.00,536,weatherlink.com 1.10,2013-03-31 21:31:00,
2013-03-31 16:46:00,40.4,33.0,29.77,WNW,292,20.0,30.0,74,0.00,,,0.00,172,weatherlink.com 1.10,2013-03-31 21:46:00,
2013-03-31 17:01:00,39.8,31.0,29.78,WNW,298,24.0,29.0,72,0.00,,,0.00,113,weatherlink.com 1.10,2013-03-31 22:01:00,
2013-03-31 17:16:00,39.3,31.0,29.78,WNW,299,15.0,24.0,72,0.00,,,0.00,104,weatherlink.com 1.10,2013-03-31 22:16:00,
2013-03-31 17:46:00,40.5,31.0,29.78,NW,305,21.0,26.0,70,0.00,,,0.00,320,weatherlink.com 1.10,2013-03-31 22:46:00,
2013-03-31 18:16:00,39.7,29.0,29.79,WNW,300,14.0,21.0,67,0.00,,,0.00,111,weatherlink.com 1.10,2013-03-31 23:16:00,
2013-03-31 18:31:00,39.1,29.0,29.79,WNW,301,15.0,24.0,68,0.00,,,0.00,74,weatherlink.com 1.10,2013-03-31 23:31:00,
2013-03-31 18:46:00,38.8,29.0,29.80,WNW,298,14.0,26.0,69,0.00,,,0.00,67,weatherlink.com 1.10,2013-03-31 23:46:00,
2013-03-31 19:01:00,38.0,28.0,29.80,WNW,286,16.0,27.0,67,0.00,,,0.00,25,weatherlink.com 1.10,2013-04-01 00:01:00,
2013-03-31 19:16:00,37.5,27.0,29.80,WNW,296,18.0,23.0,66,0.00,,,0.00,9,weatherlink.com 1.10,2013-04-01 00:16:00,
2013-03-31 19:46:00,36.3,27.0,29.81,WNW,300,11.0,18.0,70,0.00,,,0.00,0,weatherlink.com 1.10,2013-04-01 00:46:00,
2013-03-31 20:01:00,35.7,27.0,29.82,WNW,293,11.0,16.0,72,0.00,,,0.00,0,weatherlink.com 1.10,2013-04-01 01:01:00,
2013-03-31 20:16:00,35.5,27.0,29.83,WNW,296,16.0,18.0,71,0.00,,,0.00,0,weatherlink.com 1.10,2013-04-01 01:16:00,
2013-03-31 20:31:00,35.6,27.0,29.83,WNW,292,15.0,20.0,70,0.00,,,0.00,0,weatherlink.com 1.10,2013-04-01 01:31:00,
2013-03-31 20:46:00,35.1,27.0,29.84,WNW,292,15.0,22.0,71,0.00,,,0.00,0,weatherlink.com 1.10,2013-04-01 01:46:00,
2013-03-31 21:01:00,34.4,26.0,29.84,NW,307,13.0,18.0,72,0.00,,,0.00,0,weatherlink.com 1.10,2013-04-01 02:01:00,
2013-03-31 21:16:00,34.2,27.0,29.85,NW,304,11.0,18.0,74,0.00,,,0.00,0,weatherlink.com 1.10,2013-04-01 02:16:00,
2013-03-31 21:31:00,33.9,27.0,29.86,WNW,302,12.0,16.0,75,0.00,,,0.00,0,weatherlink.com 1.10,2013-04-01 02:31:00,
2013-03-31 21:46:00,33.6,26.0,29.86,NW,304,11.0,16.0,75,0.00,,,0.00,0,weatherlink.com 1.10,2013-04-01 02:46:00,
2013-03-31 22:01:00,33.3,26.0,29.87,WNW,295,13.0,15.0,75,0.00,,,0.00,0,weatherlink.com 1.10,2013-04-01 03:01:00,
2013-03-31 22:16:00,32.9,26.0,29.88,NW,309,10.0,15.0,75,0.00,,,0.00,0,weatherlink.com 1.10,2013-04-01 03:16:00,
2013-03-31 22:31:00,32.6,26.0,29.88,WNW,298,11.0,17.0,75,0.00,,,0.00,0,weatherlink.com 1.10,2013-04-01 03:31:00,
2013-03-31 22:47:00,32.6,25.0,29.89,NW,304,11.0,16.0,73,0.00,,,0.00,0,weatherlink.com 1.10,2013-04-01 03:47:00,
2013-03-31 23:02:00,32.3,24.0,29.90,NW,304,11.0,15.0,72,0.00,,,0.00,0,weatherlink.com 1.10,2013-04-01 04:02:00,
2013-03-31 23:17:00,31.9,24.0,29.90,NW,311,13.0,16.0,72,0.00,,,0.00,0,weatherlink.com 1.10,2013-04-01 04:17:00,
2013-03-31 23:32:00,31.9,23.0,29.90,NW,314,12.0,16.0,70,0.00,,,0.00,0,weatherlink.com 1.10,2013-04-01 04:32:00,
2013-03-31 23:48:00,31.5,23.0,29.90,NW,309,12.0,16.0,70,0.00,,,0.00,0,weatherlink.com 1.10,2013-04-01 04:48:00,